• Processing (Info)

  • MPEC 2020-A141 : 2019 TV33

    The following Minor Planet Electronic Circular may be linked-to from your own Web pages, but must not otherwise be redistributed electronically.

    A form allowing access to any MPEC is at the bottom of this page.


    Read MPEC 2020-A140 Read MPEC 2020-A142


    M.P.E.C. 2020-A141                             Issued 2020 January 15, 22:30 UT
    
         The Minor Planet Electronic Circulars contain information on unusual
             minor planets and routine data on comets.  They are published
        on behalf of Division F of the International Astronomical Union by the
              Minor Planet Center, Smithsonian Astrophysical Observatory,
                              Cambridge, MA 02138, U.S.A.
    
                 Prepared using the Tamkin Foundation Computer Network
    
                                  MPC@CFA.HARVARD.EDU
                URL https://www.minorplanetcenter.net/    ISSN 1523-6714
    
                                    2019 TV33                                
    
    
    Observations:
         K19T33V  C2019 10 05.62190705 04 39.023+03 45 54.24         22.3 GVEA141F52
         K19T33V* C2019 10 09.59615 05 15 05.658+03 12 58.02         22.0 wUEA141F51
         K19T33V  C2019 10 09.61587 05 15 08.621+03 12 48.00         22.2 wUEA141F51
         K19T33V  C2019 10 09.62573 05 15 10.089+03 12 42.98         21.3 wUEA141F51
         K19T33V  C2019 10 27.54374805 59 48.481+00 29 44.89         21.5 GVEA141F51
         K19T33V  C2019 10 27.55695805 59 50.227+00 29 37.71         21.6 GVEA141F51
         K19T33V  C2019 10 28.56248106 02 10.069+00 20 33.05         22.4 GVEA141F52
         K19T33V  C2020 01 14.22933 07 14 31.56 +12 36 43.5          20.3 GVEA141G96
         K19T33V  C2020 01 14.23517 07 14 31.46 +12 36 53.5          20.4 GVEA141G96
         K19T33V  C2020 01 14.24101 07 14 31.36 +12 37 03.9          20.1 GVEA141G96
         K19T33V  C2020 01 14.24685 07 14 31.27 +12 37 14.4          20.3 GVEA141G96
         K19T33V  C2020 01 14.29660607 14 30.36 +12 38 41.4          19.8 GVEA141H01
         K19T33V  C2020 01 14.31172107 14 30.12 +12 39 07.9          19.7 GVEA141H01
         K19T33V KC2020 01 14.31901 07 14 30.13 +12 39 22.1          19.6 RoEA141691
         K19T33V  C2020 01 14.31927507 14 30.00 +12 39 21.2          19.9 GVEA141H01
         K19T33V  C2020 01 14.32269307 14 29.94 +12 39 27.2          19.9 GVEA141H01
         K19T33V KC2020 01 14.33052 07 14 29.93 +12 39 42.5          20.0 RoEA141691
         K19T33V KC2020 01 14.34198 07 14 29.76 +12 40 02.3          19.9 RoEA141691
         K19T33V  C2020 01 14.36324 07 14 29.35 +12 40 38.6          20.6 GVEA141I52
         K19T33V  C2020 01 14.36400 07 14 29.37 +12 40 40.2          20.5 GVEA141I52
         K19T33V  C2020 01 14.36620 07 14 29.32 +12 40 44.1          20.1 GVEA141I52
         K19T33V  C2020 01 14.36697 07 14 29.35 +12 40 45.4          19.7 GVEA141I52
         K19T33V  C2020 01 15.21474 07 14 26.55 +13 05 34.8          19.8 GVEA141G96
         K19T33V  C2020 01 15.22466 07 14 26.34 +13 05 52.1          20.2 GVEA141G96
         K19T33V  C2020 01 15.25066 07 14 26.00 +13 06 38.7                VEA141I52
         K19T33V  C2020 01 15.25160 07 14 25.96 +13 06 39.4          20.2 GVEA141G96
         K19T33V  C2020 01 15.25294 07 14 25.94 +13 06 41.7          19.8 GVEA141I52
         K19T33V  C2020 01 15.25405 07 14 25.93 +13 06 43.8          19.8 GVEA141I52
         K19T33V  C2020 01 15.86773 07 14 23.37 +13 24 28.4          19.8 GVEA141246
         K19T33V  C2020 01 15.86944 07 14 23.41 +13 24 32.3                VEA141246
         K19T33V  C2020 01 15.86969 07 14 23.35 +13 24 33.8          19.9 GVEA141246
         K19T33V  C2020 01 15.87060 07 14 23.16 +13 24 35.4                VEA141246
    
    Observer details:
    246 Klet Observatory-KLENOT.  Observers M. Tichy, J. Ticha.  Measurer M. Tichy. 
        1.06-m f/2.7 reflector + 2048x2048 CCD.
    691 Steward Observatory, Kitt Peak-Spacewatch.  Observer T. H. Bressi.  0.9-m 
       f/3 reflector + CCD.
    F51 Pan-STARRS 1, Haleakala.  Observers J. Bulger, T. Lowe, A. Schultz, M. 
       Willman, K. Chambers.  Measurers K. Chambers, S. Chastel, T. de Boer, L. 
       Denneau, J. Fairlamb, H. Flewelling, M. Huber, C.-C. Lin, E. Magnier, Y. 
       Ramanjooloo, R. Wainscoat, R. Weryk.  1.8-m Ritchey-Chretien + CCD.
    F52 Pan-STARRS 2, Haleakala.  Observers J. Bulger, K. Chambers, T. Dukes, T. 
       Lowe, A. Schultz, M. Willman.  Measurers S. Chastel, M. Huber, Y. 
       Ramanjooloo, R. Wainscoat, R. Weryk.  1.8-m Ritchey-Chretien + CCD.
    G96 Mt. Lemmon Survey.  Observer G. J. Leonard.  Measurers E. J. Christensen, 
       G. A. Farneth, D. C. Fuls, A. R. Gibbs, A. D. Grauer, H. Groeller, R. A. 
       Kowalski, S. M. Larson, G. J. Leonard, T. A. Pruyne, D. Rankin, R. L. Seaman,
        F. C. Shelly, K. W. Wierzchos.  1.5-m reflector + 10K CCD.
    H01 Magdalena Ridge Observatory, Socorro.  Observers W. H. Ryan, E. V. Ryan.  
        Measurer W. H. Ryan.  2.4-m f/8.9 Ritchey-Chretien + CCD.
    I52 Steward Observatory, Mt. Lemmon Station.  Observer K. W. Wierzchos.  
        Measurers E. J. Christensen, G. A. Farneth, D. C. Fuls, A. R. Gibbs, A. D. 
       Grauer, H. Groeller, R. A. Kowalski, S. M. Larson, G. J. Leonard, T. A. 
       Pruyne, D. Rankin, R. L. Seaman, F. C. Shelly, K. W. Wierzchos.  1.0-m 
       reflector + CCD.
    
    Orbital elements:
    2019 TV33                                                Earth MOID = 0.2671 AU
    Epoch 2020 May 31.0 TT = JDT 2459000.5                  Bell
    M  76.42575              (2000.0)            P               Q
    n   0.42648998     Peri.  309.81622     +0.19019782     -0.97618617
    a   1.7479546      Node   128.90434     +0.93672808     +0.14863652
    e   0.2969222      Incl.    7.70486     +0.29387972     +0.15801183
    P   2.31           H   21.5           G   0.15           U   4
    Residuals in seconds of arc
    191005 F52  0.0   0.1-    200114 H01  0.2+  0.0     200115 G96  0.7+  0.0
    191009 F51  0.0   0.1-    200114 H01  0.3+  0.1-    200115 G96  0.3-  0.2-
    191009 F51  0.1+  0.0     200114 691  0.3+  0.3+    200115 I52  0.4+  0.5+
    191009 F51  0.1-  0.0     200114 H01  0.3+  0.1-    200115 G96  0.0   0.5-
    191027 F51  0.0   0.0     200114 H01  0.2+  0.1-    200115 I52  0.0   0.5-
    191027 F51  0.0   0.0     200114 691  0.1+  0.5+    200115 I52  0.1+  0.4-
    191028 F52  0.1-  0.1+    200114 691  0.3+  0.2+    200115 246  0.4-  0.9-
    200114 G96  0.5+  0.3+    200114 I52  0.5-  0.5-    200115 246  0.5+  0.0
    200114 G96  0.3+  0.1-    200114 I52  0.0   0.2-    200115 246  0.4-  1.0+
    200114 G96  0.2+  0.0     200114 I52  0.3-  0.1-    200115 246  3.0-  1.0+
    200114 G96  0.2+  0.1+    200114 I52  0.3+  0.2-
    
    Ephemeris:
    2019 TV33                a,e,i = 1.75, 0.30, 8                   q = 1.2289
    Date    TT    R. A. (2000) Decl.     Delta      r    Elong.  Phase     V
    2019 12 16    07 13 50.9 +00 23 14   0.2872  1.2333   146.2    26.3    20.4
    ...
    2019 12 31    07 16 12.4 +05 46 51   0.2795  1.2501   160.3    15.3    20.1
    ...
    2020 01 08    07 15 16.8 +09 32 58   0.2862  1.2639   167.2     9.9    19.9
    ...
    2020 01 14    07 14 32.2 +12 30 08   0.2968  1.2763   169.3     8.3    20.0
    2020 01 15    07 14 26.7 +12 59 27   0.2991  1.2786   169.2     8.3    20.0
    2020 01 16    07 14 22.3 +13 28 36   0.3015  1.2808   168.9     8.5    20.0
    ...
    2020 01 22    07 14 21.3 +16 17 31   0.3190  1.2954   165.5    11.0    20.3
    ...
    2020 01 30    07 16 00.2 +19 37 58   0.3503  1.3170   158.5    15.9    20.7
    ...
    2020 02 14    07 25 44.7 +24 11 09   0.4318  1.3636   145.0    24.6    21.5
    
    A. U. Tomatic                (C) Copyright 2020 MPC           M.P.E.C. 2020-A141
    


    Read MPEC 2020-A140 Read MPEC 2020-A142


    MPEC number:

    Enter an MPEC number in one of the following forms:

    • 1997-B01 (the full form)
    • J97B01 (the packed version of the full form)
    • B01 (the abbreviated form)